Location: Borgo
(42.3939°N, 9.2791°E)
Time: 10:35:03
(UTC+00:00)

Cosmos 1937 Rocket - Pass Details

Date: 27 February 2020
Orbit: 747 x 780 km, 74.0° (Epoch: 29 March)

Event Time Altitude Azimuth Distance (km) Brightness Sun altitude
Rises 18:06:20 0° 345° (NNW) 3,250 6.9 -11.3°
Reaches altitude 10° 18:08:51 10° 353° (N) 2,314 6.1 -11.7°
Maximum altitude 18:13:50 42° 64° (ENE) 1,074 3.9 -12.6°
Drops below altitude 10° 18:18:44 10° 135° (SE) 2,278 5.5 -13.6°
Enters shadow 18:19:02 - 137° (SE) 2,390 5.7 -13.6°
